owner,sensor,date,latitude,longitude,vertical_datum,direction_of_sea_water_velocity,sea_water_speed,upward_sea_water_velocity,qcFlag 
TABS,ioos:station:wmo:42050:1,2005-05-01T00:00:00Z,28.8425,-94.2433,2.0,262.8745794,38.05385657,-99999.0,'11111222,11111222,99999999' 
TABS,ioos:station:wmo:42050:1,2005-05-01T00:30:00Z,28.8425,-94.2433,2.0,256.5464913,37.65318048,-99999.0,'11111222,11111222,99999999' 
TABS,ioos:station:wmo:42050:1,2005-05-01T01:00:00Z,28.8425,-94.2433,2.0,249.0813263,35.54259557,-99999.0,'11111222,11111222,99999999' 
TABS,ioos:station:wmo:42050:1,2005-05-01T01:30:00Z,28.8425,-94.2433,2.0,243.929191,29.0118269,-99999.0,'11111222,11111222,99999999' 
TABS,ioos:station:wmo:42050:1,2005-05-01T02:00:00Z,28.8425,-94.2433,2.0,244.0869522,35.7436274,-99999.0,'11111222,11111222,99999999' 
TABS,ioos:station:wmo:42050:1,2005-05-01T02:30:00Z,28.8425,-94.2433,2.0,235.1603835,35.95457829,-99999.0,'11111222,11111222,99999999' 
TABS,ioos:station:wmo:42050:1,2005-05-01T03:00:00Z,28.8425,-94.2433,2.0,237.2721844,39.9523729,-99999.0,'11111222,11111222,99999999' 
TABS,ioos:station:wmo:42050:1,2005-05-01T03:30:00Z,28.8425,-94.2433,2.0,237.8751889,42.33110677,-99999.0,'11111222,11111222,99999999' 
TABS,ioos:station:wmo:42050:1,2005-05-01T04:00:00Z,28.8425,-94.2433,2.0,239.8668331,41.03535183,-99999.0,'11111222,11111222,99999999' 
TABS,ioos:station:wmo:42050:1,2005-05-01T04:30:00Z,28.8425,-94.2433,2.0,235.2643568,42.4194354,-99999.0,'11111222,11111222,99999999' 
TABS,ioos:station:wmo:42050:1,2005-05-01T05:00:00Z,28.8425,-94.2433,2.0,241.6092752,41.13769196,-99999.0,'11111222,11111222,99999999' 
TABS,ioos:station:wmo:42050:1,2005-05-01T05:30:00Z,28.8425,-94.2433,2.0,241.0065907,41.5924272,-99999.0,'11111222,11111222,99999999' 
TABS,ioos:station:wmo:42050:1,2005-05-01T06:00:00Z,28.8425,-94.2433,2.0,246.8307354,40.53955352,-99999.0,'11111222,11111222,99999999' 
TABS,ioos:station:wmo:42050:1,2005-05-01T06:30:00Z,28.8425,-94.2433,2.0,245.7073928,39.69460039,-99999.0,'11111222,11111222,99999999' 
TABS,ioos:station:wmo:42050:1,2005-05-01T07:00:00Z,28.8425,-94.2433,2.0,249.9372637,39.52860357,-99999.0,'11111222,11111222,99999999' 
TABS,ioos:station:wmo:42050:1,2005-05-01T07:30:00Z,28.8425,-94.2433,2.0,253.9679381,38.30990472,-99999.0,'11111222,11111222,99999999' 
TABS,ioos:station:wmo:42050:1,2005-05-01T08:00:00Z,28.8425,-94.2433,2.0,256.8036803,36.05194724,-99999.0,'11111222,11111222,99999999' 
TABS,ioos:station:wmo:42050:1,2005-05-01T08:30:00Z,28.8425,-94.2433,2.0,256.7590901,35.27778338,-99999.0,'11111222,11111222,99999999' 
TABS,ioos:station:wmo:42050:1,2005-05-01T09:00:00Z,28.8425,-94.2433,2.0,260.1128937,36.40057829,-99999.0,'11111222,11111222,99999999' 
TABS,ioos:station:wmo:42050:1,2005-05-01T09:30:00Z,28.8425,-94.2433,2.0,261.563264,38.10228602,-99999.0,'11111222,11111222,99999999' 
TABS,ioos:station:wmo:42050:1,2005-05-01T10:00:00Z,28.8425,-94.2433,2.0,265.5026196,35.32876024,-99999.0,'11111222,11111222,99999999' 
TABS,ioos:station:wmo:42050:1,2005-05-01T10:30:00Z,28.8425,-94.2433,2.0,268.9929992,33.58518274,-99999.0,'11111222,11111222,99999999' 
TABS,ioos:station:wmo:42050:1,2005-05-01T11:00:00Z,28.8425,-94.2433,2.0,269.7822345,34.27024657,-99999.0,'11111222,11111222,99999999' 
TABS,ioos:station:wmo:42050:1,2005-05-01T11:30:00Z,28.8425,-94.2433,2.0,275.4600527,29.53398212,-99999.0,'11111222,11111222,99999999' 
TABS,ioos:station:wmo:42050:1,2005-05-01T12:00:00Z,28.8425,-94.2433,2.0,274.8420167,32.34541389,-99999.0,'11111222,11111222,99999999' 
TABS,ioos:station:wmo:42050:1,2005-05-01T12:30:00Z,28.8425,-94.2433,2.0,272.9753891,35.83829935,-99999.0,'11111222,11111222,99999999' 
TABS,ioos:station:wmo:42050:1,2005-05-01T13:00:00Z,28.8425,-94.2433,2.0,275.2287113,33.69016771,-99999.0,'11111222,11111222,99999999' 
TABS,ioos:station:wmo:42050:1,2005-05-01T13:30:00Z,28.8425,-94.2433,2.0,272.7284322,31.93619263,-99999.0,'11111222,11111222,99999999' 
TABS,ioos:station:wmo:42050:1,2005-05-01T14:00:00Z,28.8425,-94.2433,2.0,275.4511998,31.16090499,-99999.0,'11111222,11111222,99999999' 
TABS,ioos:station:wmo:42050:1,2005-05-01T14:30:00Z,28.8425,-94.2433,2.0,268.5135522,32.39089378,-99999.0,'11111222,11111222,99999999' 
TABS,ioos:station:wmo:42050:1,2005-05-01T15:00:00Z,28.8425,-94.2433,2.0,267.4121237,31.01161718,-99999.0,'11111222,11111222,99999999' 
TABS,ioos:station:wmo:42050:1,2005-05-01T15:30:00Z,28.8425,-94.2433,2.0,266.961657,27.54871503,-99999.0,'11111222,11111222,99999999' 
TABS,ioos:station:wmo:42050:1,2005-05-01T16:00:00Z,28.8425,-94.2433,2.0,256.7770182,25.61919593,-99999.0,'11111222,11111222,99999999' 
TABS,ioos:station:wmo:42050:1,2005-05-01T16:30:00Z,28.8425,-94.2433,2.0,252.321139,22.75457097,-99999.0,'11111222,11111222,99999999' 
TABS,ioos:station:wmo:42050:1,2005-05-01T17:00:00Z,28.8425,-94.2433,2.0,248.7901049,26.78426777,-99999.0,'11111222,11111222,99999999' 
TABS,ioos:station:wmo:42050:1,2005-05-01T17:30:00Z,28.8425,-94.2433,2.0,246.397191,31.66927217,-99999.0,'11111222,11111222,99999999' 
TABS,ioos:station:wmo:42050:1,2005-05-01T18:00:00Z,28.8425,-94.2433,2.0,254.4962108,32.58564254,-99999.0,'11111222,11111222,99999999' 
TABS,ioos:station:wmo:42050:1,2005-05-01T18:30:00Z,28.8425,-94.2433,2.0,248.5547942,32.82228664,-99999.0,'11111222,11111222,99999999' 
TABS,ioos:station:wmo:42050:1,2005-05-01T19:00:00Z,28.8425,-94.2433,2.0,253.6383822,31.98524973,-99999.0,'11111222,11111222,99999999' 
TABS,ioos:station:wmo:42050:1,2005-05-01T19:30:00Z,28.8425,-94.2433,2.0,252.3975277,37.20180238,-99999.0,'11111222,11111222,99999999' 
TABS,ioos:station:wmo:42050:1,2005-05-01T20:00:00Z,28.8425,-94.2433,2.0,252.8379092,38.56717387,-99999.0,'11111222,11111222,99999999' 
TABS,ioos:station:wmo:42050:1,2005-05-01T20:30:00Z,28.8425,-94.2433,2.0,251.683191,35.16144053,-99999.0,'11111222,11111222,99999999' 
TABS,ioos:station:wmo:42050:1,2005-05-01T21:00:00Z,28.8425,-94.2433,2.0,254.2125014,35.80042039,-99999.0,'11111222,11111222,99999999' 
TABS,ioos:station:wmo:42050:1,2005-05-01T21:30:00Z,28.8425,-94.2433,2.0,254.5584719,35.11758819,-99999.0,'11111222,11111222,99999999' 
TABS,ioos:station:wmo:42050:1,2005-05-01T22:00:00Z,28.8425,-94.2433,2.0,255.1830763,32.76960177,-99999.0,'11111222,11111222,99999999' 
TABS,ioos:station:wmo:42050:1,2005-05-01T22:30:00Z,28.8425,-94.2433,2.0,255.0521396,32.17884554,-99999.0,'11111222,11111222,99999999' 
TABS,ioos:station:wmo:42050:1,2005-05-01T23:00:00Z,28.8425,-94.2433,2.0,258.3445442,31.58115419,-99999.0,'11111222,11111222,99999999' 
TABS,ioos:station:wmo:42050:1,2005-05-01T23:30:00Z,28.8425,-94.2433,2.0,259.1895722,31.24445071,-99999.0,'11111222,11111222,99999999' 
TABS,ioos:station:wmo:42050:1,2005-05-02T00:00:00Z,28.8425,-94.2433,2.0,261.7338567,30.46648815,-99999.0,'11111222,11111222,99999999' 
TABS,ioos:station:wmo:42050:1,2005-05-02T00:30:00Z,28.8425,-94.2433,2.0,257.7550798,26.45174096,-99999.0,'11111222,11111222,99999999' 
TABS,ioos:station:wmo:42050:1,2005-05-02T01:00:00Z,28.8425,-94.2433,2.0,265.62071,28.81410939,-99999.0,'11111222,11111222,99999999' 
TABS,ioos:station:wmo:42050:1,2005-05-02T01:30:00Z,28.8425,-94.2433,2.0,267.3335397,26.2283892,-99999.0,'11111222,11111222,99999999' 
TABS,ioos:station:wmo:42050:1,2005-05-02T02:00:00Z,28.8425,-94.2433,2.0,270.6175161,29.71172328,-99999.0,'11111222,11111222,99999999' 
TABS,ioos:station:wmo:42050:1,2005-05-02T02:30:00Z,28.8425,-94.2433,2.0,260.0805052,27.63305991,-99999.0,'11111222,11111222,99999999' 
TABS,ioos:station:wmo:42050:1,2005-05-02T03:00:00Z,28.8425,-94.2433,2.0,259.2162877,27.31228661,-99999.0,'11111222,11111222,99999999' 
TABS,ioos:station:wmo:42050:1,2005-05-02T03:30:00Z,28.8425,-94.2433,2.0,257.0079817,28.73554593,-99999.0,'11111222,11111222,99999999' 
TABS,ioos:station:wmo:42050:1,2005-05-02T04:00:00Z,28.8425,-94.2433,2.0,253.0273501,30.35194392,-99999.0,'11111222,11111222,99999999' 
TABS,ioos:station:wmo:42050:1,2005-05-02T04:30:00Z,28.8425,-94.2433,2.0,250.7069835,31.26578002,-99999.0,'11111222,11111222,99999999' 
TABS,ioos:station:wmo:42050:1,2005-05-02T05:00:00Z,28.8425,-94.2433,2.0,249.1475814,31.71740374,-99999.0,'11111222,11111222,99999999' 
TABS,ioos:station:wmo:42050:1,2005-05-02T05:30:00Z,28.8425,-94.2433,2.0,250.6790141,32.73348439,-99999.0,'11111222,11111222,99999999' 
TABS,ioos:station:wmo:42050:1,2005-05-02T06:00:00Z,28.8425,-94.2433,2.0,251.5697335,35.80647009,-99999.0,'11111222,11111222,99999999' 
TABS,ioos:station:wmo:42050:1,2005-05-02T06:30:00Z,28.8425,-94.2433,2.0,253.2268959,35.10340439,-99999.0,'11111222,11111222,99999999' 
TABS,ioos:station:wmo:42050:1,2005-05-02T07:00:00Z,28.8425,-94.2433,2.0,255.2142954,35.61940061,-99999.0,'11111222,11111222,99999999' 
TABS,ioos:station:wmo:42050:1,2005-05-02T07:30:00Z,28.8425,-94.2433,2.0,257.1421878,36.31041724,-99999.0,'11111222,11111222,99999999' 
TABS,ioos:station:wmo:42050:1,2005-05-02T08:00:00Z,28.8425,-94.2433,2.0,256.8021792,35.78511562,-99999.0,'11111222,11111222,99999999' 
TABS,ioos:station:wmo:42050:1,2005-05-02T08:30:00Z,28.8425,-94.2433,2.0,260.7779945,37.56550013,-99999.0,'11111222,11111222,99999999' 
TABS,ioos:station:wmo:42050:1,2005-05-02T09:00:00Z,28.8425,-94.2433,2.0,262.492136,38.65132469,-99999.0,'11111222,11111222,99999999' 
TABS,ioos:station:wmo:42050:1,2005-05-02T09:30:00Z,28.8425,-94.2433,2.0,259.6360789,39.30115138,-99999.0,'11111222,11111222,99999999' 
TABS,ioos:station:wmo:42050:1,2005-05-02T10:00:00Z,28.8425,-94.2433,2.0,261.7973778,38.20076701,-99999.0,'11111222,11111222,99999999' 
TABS,ioos:station:wmo:42050:1,2005-05-02T10:30:00Z,28.8425,-94.2433,2.0,264.0827086,38.41465476,-99999.0,'11111222,11111222,99999999' 
TABS,ioos:station:wmo:42050:1,2005-05-02T11:00:00Z,28.8425,-94.2433,2.0,267.0017268,40.34521285,-99999.0,'11111222,11111222,99999999' 
TABS,ioos:station:wmo:42050:1,2005-05-02T11:30:00Z,28.8425,-94.2433,2.0,269.8573673,36.26011169,-99999.0,'11111222,11111222,99999999' 
TABS,ioos:station:wmo:42050:1,2005-05-02T12:00:00Z,28.8425,-94.2433,2.0,268.7657098,35.75829135,-99999.0,'11111222,11111222,99999999' 
TABS,ioos:station:wmo:42050:1,2005-05-02T12:30:00Z,28.8425,-94.2433,2.0,271.3705742,37.22064212,-99999.0,'11111222,11111222,99999999' 
TABS,ioos:station:wmo:42050:1,2005-05-02T13:00:00Z,28.8425,-94.2433,2.0,273.3461055,35.64074634,-99999.0,'11111222,11111222,99999999' 
TABS,ioos:station:wmo:42050:1,2005-05-02T13:30:00Z,28.8425,-94.2433,2.0,261.9601533,33.96379543,-99999.0,'11111222,11111222,99999999' 
TABS,ioos:station:wmo:42050:1,2005-05-02T14:00:00Z,28.8425,-94.2433,2.0,258.6862766,33.08283089,-99999.0,'11111222,11111222,99999999' 
TABS,ioos:station:wmo:42050:1,2005-05-02T14:30:00Z,28.8425,-94.2433,2.0,256.928517,33.6929785,-99999.0,'11111222,11111222,99999999' 
TABS,ioos:station:wmo:42050:1,2005-05-02T15:00:00Z,28.8425,-94.2433,2.0,254.3820142,33.13328387,-99999.0,'11111222,11111222,99999999' 
TABS,ioos:station:wmo:42050:1,2005-05-02T15:30:00Z,28.8425,-94.2433,2.0,247.9563144,32.10701014,-99999.0,'11111222,11111222,99999999' 
TABS,ioos:station:wmo:42050:1,2005-05-02T16:00:00Z,28.8425,-94.2433,2.0,236.8423453,31.31972701,-99999.0,'11111222,11111222,99999999' 
TABS,ioos:station:wmo:42050:1,2005-05-02T16:30:00Z,28.8425,-94.2433,2.0,242.4092741,29.99047349,-99999.0,'11111222,11111222,99999999' 
TABS,ioos:station:wmo:42050:1,2005-05-02T17:00:00Z,28.8425,-94.2433,2.0,239.5423582,24.64016437,-99999.0,'11111222,11111222,99999999' 
TABS,ioos:station:wmo:42050:1,2005-05-02T17:30:00Z,28.8425,-94.2433,2.0,256.5837375,32.92856663,-99999.0,'11111222,11111222,99999999' 
TABS,ioos:station:wmo:42050:1,2005-05-02T18:00:00Z,28.8425,-94.2433,2.0,270.8730686,30.20350311,-99999.0,'11111222,11111222,99999999' 
TABS,ioos:station:wmo:42050:1,2005-05-02T18:30:00Z,28.8425,-94.2433,2.0,261.3176513,33.91865711,-99999.0,'11111222,11111222,99999999' 
TABS,ioos:station:wmo:42050:1,2005-05-02T19:00:00Z,28.8425,-94.2433,2.0,263.9274863,34.69465233,-99999.0,'11111222,11111222,99999999' 
TABS,ioos:station:wmo:42050:1,2005-05-02T19:30:00Z,28.8425,-94.2433,2.0,262.3612358,37.24044307,-99999.0,'11111222,11111222,99999999' 
TABS,ioos:station:wmo:42050:1,2005-05-02T20:00:00Z,28.8425,-94.2433,2.0,257.7227262,40.2095337,-99999.0,'11111222,11111222,99999999' 
TABS,ioos:station:wmo:42050:1,2005-05-02T20:30:00Z,28.8425,-94.2433,2.0,258.1123657,41.65325918,-99999.0,'11111222,11111222,99999999' 
TABS,ioos:station:wmo:42050:1,2005-05-02T21:00:00Z,28.8425,-94.2433,2.0,259.8173651,45.14094926,-99999.0,'11111222,11111222,99999999' 
TABS,ioos:station:wmo:42050:1,2005-05-02T21:30:00Z,28.8425,-94.2433,2.0,260.3088882,42.89203656,-99999.0,'11111222,11111222,99999999' 
TABS,ioos:station:wmo:42050:1,2005-05-02T22:00:00Z,28.8425,-94.2433,2.0,260.2282248,42.36459135,-99999.0,'11111222,11111222,99999999' 
TABS,ioos:station:wmo:42050:1,2005-05-02T22:30:00Z,28.8425,-94.2433,2.0,261.0816545,44.12339176,-99999.0,'11111222,11111222,99999999' 
TABS,ioos:station:wmo:42050:1,2005-05-02T23:00:00Z,28.8425,-94.2433,2.0,259.5519627,45.21969593,-99999.0,'11111222,11111222,99999999' 
TABS,ioos:station:wmo:42050:1,2005-05-02T23:30:00Z,28.8425,-94.2433,2.0,261.6755244,43.86208499,-99999.0,'11111222,11111222,99999999' 
TABS,ioos:station:wmo:42050:1,2005-05-03T00:00:00Z,28.8425,-94.2433,2.0,264.9289504,45.25711436,-99999.0,'11111222,11111222,99999999' 
TABS,ioos:station:wmo:42050:1,2005-05-03T00:30:00Z,28.8425,-94.2433,2.0,260.8526264,45.10354532,-99999.0,'11111222,11111222,99999999' 
TABS,ioos:station:wmo:42050:1,2005-05-03T01:00:00Z,28.8425,-94.2433,2.0,257.4120345,45.47298649,-99999.0,'11111222,11111222,99999999' 
TABS,ioos:station:wmo:42050:1,2005-05-03T01:30:00Z,28.8425,-94.2433,2.0,257.5313401,44.1410342,-99999.0,'11111222,11111222,99999999' 
TABS,ioos:station:wmo:42050:1,2005-05-03T02:00:00Z,28.8425,-94.2433,2.0,256.1364665,40.94262571,-99999.0,'11111222,11111222,99999999' 
TABS,ioos:station:wmo:42050:1,2005-05-03T02:30:00Z,28.8425,-94.2433,2.0,258.3605544,39.60434572,-99999.0,'11111222,11111222,99999999' 
TABS,ioos:station:wmo:42050:1,2005-05-03T03:00:00Z,28.8425,-94.2433,2.0,256.5734209,37.81344734,-99999.0,'11111222,11111222,99999999' 
TABS,ioos:station:wmo:42050:1,2005-05-03T03:30:00Z,28.8425,-94.2433,2.0,257.4917217,35.64601521,-99999.0,'11111222,11111222,99999999' 
TABS,ioos:station:wmo:42050:1,2005-05-03T04:00:00Z,28.8425,-94.2433,2.0,256.9455057,35.37416713,-99999.0,'11111222,11111222,99999999' 
TABS,ioos:station:wmo:42050:1,2005-05-03T04:30:00Z,28.8425,-94.2433,2.0,246.668887,31.3101022,-99999.0,'11111222,11111222,99999999' 
TABS,ioos:station:wmo:42050:1,2005-05-03T05:00:00Z,28.8425,-94.2433,2.0,249.3339562,31.19737489,-99999.0,'11111222,11111222,99999999' 
TABS,ioos:station:wmo:42050:1,2005-05-03T05:30:00Z,28.8425,-94.2433,2.0,251.0174972,31.78866465,-99999.0,'11111222,11111222,99999999' 
TABS,ioos:station:wmo:42050:1,2005-05-03T06:00:00Z,28.8425,-94.2433,2.0,245.0227007,32.91862087,-99999.0,'11111222,11111222,99999999' 
TABS,ioos:station:wmo:42050:1,2005-05-03T06:30:00Z,28.8425,-94.2433,2.0,250.2014335,31.50203962,-99999.0,'11111222,11111222,99999999' 
TABS,ioos:station:wmo:42050:1,2005-05-03T07:00:00Z,28.8425,-94.2433,2.0,246.1326482,31.06658977,-99999.0,'11111222,11111222,99999999' 
TABS,ioos:station:wmo:42050:1,2005-05-03T07:30:00Z,28.8425,-94.2433,2.0,247.1718981,32.86406244,-99999.0,'11111222,11111222,99999999' 
TABS,ioos:station:wmo:42050:1,2005-05-03T08:00:00Z,28.8425,-94.2433,2.0,241.7179866,36.57612609,-99999.0,'11111222,11111222,99999999' 
TABS,ioos:station:wmo:42050:1,2005-05-03T08:30:00Z,28.8425,-94.2433,2.0,243.570701,35.7682443,-99999.0,'11111222,11111222,99999999' 
TABS,ioos:station:wmo:42050:1,2005-05-03T09:00:00Z,28.8425,-94.2433,2.0,242.323541,36.90205956,-99999.0,'11111222,11111222,99999999' 
TABS,ioos:station:wmo:42050:1,2005-05-03T09:30:00Z,28.8425,-94.2433,2.0,240.8092609,37.29651056,-99999.0,'11111222,11111222,99999999' 
TABS,ioos:station:wmo:42050:1,2005-05-03T10:00:00Z,28.8425,-94.2433,2.0,243.6009466,44.6678822,-99999.0,'11111222,11111222,99999999' 
TABS,ioos:station:wmo:42050:1,2005-05-03T10:30:00Z,28.8425,-94.2433,2.0,233.7138126,50.03259937,-99999.0,'11111222,11111222,99999999' 
TABS,ioos:station:wmo:42050:1,2005-05-03T11:00:00Z,28.8425,-94.2433,2.0,235.8157022,49.55043592,-99999.0,'11111222,11111222,99999999' 
TABS,ioos:station:wmo:42050:1,2005-05-03T11:30:00Z,28.8425,-94.2433,2.0,236.508624,42.31555979,-99999.0,'11111222,11111222,99999999' 
TABS,ioos:station:wmo:42050:1,2005-05-03T12:00:00Z,28.8425,-94.2433,2.0,242.8947853,44.62048072,-99999.0,'11111222,11111222,99999999' 
TABS,ioos:station:wmo:42050:1,2005-05-03T12:30:00Z,28.8425,-94.2433,2.0,260.7874767,41.78897702,-99999.0,'11111222,11111222,99999999' 
TABS,ioos:station:wmo:42050:1,2005-05-03T13:00:00Z,28.8425,-94.2433,2.0,263.4506787,39.10516718,-99999.0,'11111222,11111222,99999999' 
TABS,ioos:station:wmo:42050:1,2005-05-03T13:30:00Z,28.8425,-94.2433,2.0,270.8501155,36.41400417,-99999.0,'11111222,11111222,99999999' 
TABS,ioos:station:wmo:42050:1,2005-05-03T14:00:00Z,28.8425,-94.2433,2.0,266.4750049,39.36445732,-99999.0,'11111222,11111222,99999999' 
TABS,ioos:station:wmo:42050:1,2005-05-03T14:30:00Z,28.8425,-94.2433,2.0,268.4321403,36.92381616,-99999.0,'11111222,11111222,99999999' 
TABS,ioos:station:wmo:42050:1,2005-05-03T15:00:00Z,28.8425,-94.2433,2.0,273.757378,39.37461746,-99999.0,'11111222,11111222,99999999' 
TABS,ioos:station:wmo:42050:1,2005-05-03T15:30:00Z,28.8425,-94.2433,2.0,275.1441738,39.9308064,-99999.0,'11111222,11111222,99999999' 
TABS,ioos:station:wmo:42050:1,2005-05-03T16:00:00Z,28.8425,-94.2433,2.0,278.4898289,34.95297555,-99999.0,'11111222,11111222,99999999' 
TABS,ioos:station:wmo:42050:1,2005-05-03T16:30:00Z,28.8425,-94.2433,2.0,276.7844964,36.06249714,-99999.0,'11111222,11111222,99999999' 
TABS,ioos:station:wmo:42050:1,2005-05-03T17:00:00Z,28.8425,-94.2433,2.0,278.7976315,37.53152941,-99999.0,'11111222,11111222,99999999' 
TABS,ioos:station:wmo:42050:1,2005-05-03T17:30:00Z,28.8425,-94.2433,2.0,280.076078,38.23975157,-99999.0,'11111222,11111222,99999999' 
TABS,ioos:station:wmo:42050:1,2005-05-03T18:00:00Z,28.8425,-94.2433,2.0,278.0519334,37.12596935,-99999.0,'11111222,11111222,99999999' 
TABS,ioos:station:wmo:42050:1,2005-05-03T18:30:00Z,28.8425,-94.2433,2.0,273.8978605,38.39880467,-99999.0,'11111222,11111222,99999999' 
TABS,ioos:station:wmo:42050:1,2005-05-03T19:00:00Z,28.8425,-94.2433,2.0,272.4331861,37.69397299,-99999.0,'11111222,11111222,99999999' 
TABS,ioos:station:wmo:42050:1,2005-05-03T19:30:00Z,28.8425,-94.2433,2.0,274.8917756,37.99838418,-99999.0,'11111222,11111222,99999999' 
TABS,ioos:station:wmo:42050:1,2005-05-03T20:00:00Z,28.8425,-94.2433,2.0,273.9173665,36.30480409,-99999.0,'11111222,11111222,99999999' 
TABS,ioos:station:wmo:42050:1,2005-05-03T20:30:00Z,28.8425,-94.2433,2.0,270.6243924,35.81212365,-99999.0,'11111222,11111222,99999999' 
TABS,ioos:station:wmo:42050:1,2005-05-03T21:00:00Z,28.8425,-94.2433,2.0,271.0323534,33.31540334,-99999.0,'11111222,11111222,99999999' 
TABS,ioos:station:wmo:42050:1,2005-05-03T21:30:00Z,28.8425,-94.2433,2.0,269.5626011,34.09099148,-99999.0,'11111222,11111222,99999999' 
TABS,ioos:station:wmo:42050:1,2005-05-03T22:00:00Z,28.8425,-94.2433,2.0,269.4069468,32.8717584,-99999.0,'11111222,11111222,99999999' 
TABS,ioos:station:wmo:42050:1,2005-05-03T22:30:00Z,28.8425,-94.2433,2.0,270.4759656,32.53112048,-99999.0,'11111222,11111222,99999999' 
TABS,ioos:station:wmo:42050:1,2005-05-03T23:00:00Z,28.8425,-94.2433,2.0,273.401859,32.69760236,-99999.0,'11111222,11111222,99999999' 
TABS,ioos:station:wmo:42050:1,2005-05-03T23:30:00Z,28.8425,-94.2433,2.0,280.8267143,32.52898092,-99999.0,'11111222,11111222,99999999' 
TABS,ioos:station:wmo:42050:1,2005-05-04T00:00:00Z,28.8425,-94.2433,2.0,280.8161836,29.78918764,-99999.0,'11111222,11111222,99999999' 
TABS,ioos:station:wmo:42050:1,2005-05-04T00:30:00Z,28.8425,-94.2433,2.0,282.4858592,28.67821473,-99999.0,'11111222,11111222,99999999' 
TABS,ioos:station:wmo:42050:1,2005-05-04T01:00:00Z,28.8425,-94.2433,2.0,284.9175843,28.55224334,-99999.0,'11111222,11111222,99999999' 
TABS,ioos:station:wmo:42050:1,2005-05-04T01:30:00Z,28.8425,-94.2433,2.0,289.9425374,21.52042053,-99999.0,'11111222,11111222,99999999' 
TABS,ioos:station:wmo:42050:1,2005-05-04T02:00:00Z,28.8425,-94.2433,2.0,292.214451,25.52448628,-99999.0,'11111222,11111222,99999999' 
TABS,ioos:station:wmo:42050:1,2005-05-04T02:30:00Z,28.8425,-94.2433,2.0,295.1296773,24.6313134,-99999.0,'11111222,11111222,99999999' 
TABS,ioos:station:wmo:42050:1,2005-05-04T03:00:00Z,28.8425,-94.2433,2.0,302.2866128,24.0007604,-99999.0,'11111222,11111222,99999999' 
TABS,ioos:station:wmo:42050:1,2005-05-04T03:30:00Z,28.8425,-94.2433,2.0,295.0205419,21.06694567,-99999.0,'11111222,11111222,99999999' 
TABS,ioos:station:wmo:42050:1,2005-05-04T04:00:00Z,28.8425,-94.2433,2.0,296.1777101,21.14921512,-99999.0,'11111222,11111222,99999999' 
TABS,ioos:station:wmo:42050:1,2005-05-04T04:30:00Z,28.8425,-94.2433,2.0,296.0350358,18.84191604,-99999.0,'11111222,11111222,99999999' 
TABS,ioos:station:wmo:42050:1,2005-05-04T05:00:00Z,28.8425,-94.2433,2.0,288.0075324,18.21206468,-99999.0,'11111222,11111222,99999999' 
TABS,ioos:station:wmo:42050:1,2005-05-04T05:30:00Z,28.8425,-94.2433,2.0,289.3602472,16.65156149,-99999.0,'11111222,11111222,99999999' 
TABS,ioos:station:wmo:42050:1,2005-05-04T06:00:00Z,28.8425,-94.2433,2.0,278.4224114,16.93259874,-99999.0,'11111222,11111222,99999999' 
TABS,ioos:station:wmo:42050:1,2005-05-04T06:30:00Z,28.8425,-94.2433,2.0,269.408206,16.47087733,-99999.0,'11111222,11111222,99999999' 
TABS,ioos:station:wmo:42050:1,2005-05-04T07:00:00Z,28.8425,-94.2433,2.0,262.2133713,18.37945048,-99999.0,'11111222,11111222,99999999' 
TABS,ioos:station:wmo:42050:1,2005-05-04T07:30:00Z,28.8425,-94.2433,2.0,250.3350823,17.97852608,-99999.0,'11111222,11111222,99999999' 
TABS,ioos:station:wmo:42050:1,2005-05-04T08:00:00Z,28.8425,-94.2433,2.0,241.9328551,17.74705891,-99999.0,'11111222,11111222,99999999' 
TABS,ioos:station:wmo:42050:1,2005-05-04T08:30:00Z,28.8425,-94.2433,2.0,245.7597022,19.29078796,-99999.0,'11111222,11111222,99999999' 
TABS,ioos:station:wmo:42050:1,2005-05-04T09:00:00Z,28.8425,-94.2433,2.0,240.2845365,21.48529963,-99999.0,'11111222,11111222,99999999' 
TABS,ioos:station:wmo:42050:1,2005-05-04T09:30:00Z,28.8425,-94.2433,2.0,238.127223,26.49471834,-99999.0,'11111222,11111222,99999999' 
TABS,ioos:station:wmo:42050:1,2005-05-04T10:00:00Z,28.8425,-94.2433,2.0,239.2736349,28.10543008,-99999.0,'11111222,11111222,99999999' 
TABS,ioos:station:wmo:42050:1,2005-05-04T10:30:00Z,28.8425,-94.2433,2.0,240.9591865,27.54275404,-99999.0,'11111222,11111222,99999999' 
TABS,ioos:station:wmo:42050:1,2005-05-04T11:00:00Z,28.8425,-94.2433,2.0,249.7396619,27.40555053,-99999.0,'11111222,11111222,99999999' 
TABS,ioos:station:wmo:42050:1,2005-05-04T11:30:00Z,28.8425,-94.2433,2.0,255.2187495,28.92724149,-99999.0,'11111222,11111222,99999999' 
TABS,ioos:station:wmo:42050:1,2005-05-04T12:00:00Z,28.8425,-94.2433,2.0,257.0020614,29.30069282,-99999.0,'11111222,11111222,99999999' 
TABS,ioos:station:wmo:42050:1,2005-05-04T12:30:00Z,28.8425,-94.2433,2.0,258.7979141,31.14329783,-99999.0,'11111222,11111222,99999999' 
TABS,ioos:station:wmo:42050:1,2005-05-04T13:00:00Z,28.8425,-94.2433,2.0,261.6620034,32.41257318,-99999.0,'11111222,11111222,99999999' 
TABS,ioos:station:wmo:42050:1,2005-05-04T13:30:00Z,28.8425,-94.2433,2.0,263.4308303,36.53987411,-99999.0,'11111222,11111222,99999999' 
TABS,ioos:station:wmo:42050:1,2005-05-04T14:00:00Z,28.8425,-94.2433,2.0,267.7428739,33.77619576,-99999.0,'11111222,11111222,99999999' 
TABS,ioos:station:wmo:42050:1,2005-05-04T14:30:00Z,28.8425,-94.2433,2.0,268.4973575,34.71193023,-99999.0,'11111222,11111222,99999999' 
TABS,ioos:station:wmo:42050:1,2005-05-04T15:00:00Z,28.8425,-94.2433,2.0,272.5781982,37.79824864,-99999.0,'11111222,11111222,99999999' 
TABS,ioos:station:wmo:42050:1,2005-05-04T15:30:00Z,28.8425,-94.2433,2.0,270.8919136,34.06412336,-99999.0,'11111222,11111222,99999999' 
TABS,ioos:station:wmo:42050:1,2005-05-04T16:00:00Z,28.8425,-94.2433,2.0,269.0332776,34.98497535,-99999.0,'11111222,11111222,99999999' 